Miscellaneous Local Product
Issued by NWS North Platte, NE

Home | Current Version | Previous Version | Text Only | Print | Product List | Glossary On
Versions: 1 2 3 4 5 6 7 8 9 10 11 12 13 14 15 16 17 18 19 20 21 22 23 24 25 26 27 28 29 30 31 32 33 34 35 36 37 38 39 40 41 42 43 44 45 46 47 48 49 50
000
AXUS43 KLBF 180210
MISLBF


WESTERN AND NORTH CENTRAL NEBRASKA HOURLY WEATHER ROUNDUP
NATIONAL WEATHER SERVICE NORTH PLATTE NE
800 PM CST WED DEC 17 2014

***STATIONS NOT REPORTING VARIABLES SUCH AS SKY/WEATHER OR
PRESSURE ARE PROVIDED BY THE NEBRASKA DEPARTMENT OF
ROADS...RAWS...AND APRS NETWORKS...AND ARE NOT UNDER
NATIONAL WEATHER SERVICE QUALITY CONTROL***

...OBSERVATIONS IN AND NEAR THE EASTERN PANHANDLE OF NEBRASKA...

CITY           SKY/WX    TMP DP  RH WIND       PRES   REMARKS
PINE RIDGE     CLEAR     20  17  88 CALM      30.01R
CHADRON        PTCLDY    14  11  87 CALM      30.02R
ALLIANCE       CLOUDY    22  20  92 SW6       29.99S FOG     WCI  14
SIDNEY         FOG       21  19  92 SW9       29.99R VSB 1   WCI  11
WHITECLAY        N/A     22  19  89 S8          N/A  WCI  12
CRESCENT LAKE    N/A     22  20  93 S7          N/A  WCI  14
LISCO            N/A     26  22  84 E8          N/A  WCI  17
BIG SPRINGS      N/A     24  23  94 S5          N/A  WCI  18
$$

...OBSERVATIONS IN NORTH CENTRAL NEBRASKA...

CITY           SKY/WX    TMP DP  RH WIND       PRES   REMARKS
VALENTINE      CLOUDY    22  20  92 S14       30.10S WCI   9
THEDFORD       CLOUDY    23  22  96 S9        30.09S WCI  13
AINSWORTH      CLOUDY    20  19  96 S6        30.11S FOG     WCI  13
O`NEILL        CLOUDY    21  20  95 S3        30.18R
ORD            CLOUDY    23  20  88 SE5       30.16S WCI  17
BROKEN BOW     CLOUDY    23  21  92 SE7       30.13S WCI  15
BROWNLEE         N/A     20  18  91 CALM        N/A
SPRINGVIEW       N/A     20  17  88 CALM        N/A
BREWSTER         N/A     24  24  99 S7          N/A  WCI  16
ROSE             N/A     24  24 100 MISG        N/A
SARGENT          N/A     22  20  93 CALM        N/A
COMSTOCK         N/A     29  26  89 CALM        N/A
CHAMBERS         N/A     21  18  86 CALM        N/A
EWING            N/A     17  15  93 CALM        N/A
$$

...OBSERVATIONS IN SOUTHWEST NEBRASKA AND FAR NORTHEAST COLORADO...

CITY           SKY/WX    TMP DP  RH WIND       PRES   REMARKS
WRAY           FOG      N/A N/A N/A E5        30.05R VSB 1/4
IMPERIAL       CLOUDY    25  21  86 SE8       30.07R FOG     WCI  16
OGALLALA       CLOUDY    23  22  96 S7        30.06S WCI  15
NORTH PLATTE   CLOUDY    22  20  92 S6        30.11R WCI  14
MCCOOK         CLOUDY    24  23  96 E7        30.12S FOG     WCI  16
LEXINGTON      CLOUDY    25  23  92 E5        30.14S WCI  19
PAXTON           N/A     23  22  94 S5          N/A  WCI  17
BRADY            N/A     21  19  93 CALM        N/A
GOTHENBURG       N/A     25  23  91 CALM        N/A
CALLAWAY         N/A     20  19  94 CALM        N/A
$$

...NORTH PLATTE AREA...

CITY           SKY/WX    TMP DP  RH WIND       PRES   REMARKS
AIRPORT        CLOUDY    22  20  92 S6        30.11R WCI  14
$$

...SOME WEATHER OBSERVATIONS FROM AROUND THE REGION...

CITY           SKY/WX    TMP DP  RH WIND       PRES   REMARKS
DENVER         CLOUDY    32  27  81 W5        29.94R WCI  27
LARAMIE        PTCLDY    17  12  80 SE3       29.94R
CHEYENNE       CLEAR     28  17  63 W9        29.94R WCI  19
SCOTTSBLUFF    FOG       20  18  92 E8        29.99R VSB 1/2 WCI  10
RAPID CITY     CLOUDY    23  20  88 NE5       30.02S WCI  17
PIERRE         CLOUDY    18  15  88 SE12      30.17S WCI   5
WINNER         CLOUDY    22  18  85 SE12      30.15S WCI  10
SIOUX FALLS    CLEAR     11   8  88 NE5       30.24F WCI   3
OMAHA          CLOUDY    28  18  66 E5        30.27S WCI  23
GRAND ISLAND   CLOUDY    24  18  77 SE6       30.20R WCI  17
KANSAS CITY    CLOUDY    30  22  72 SE8       30.26R WCI  22
WICHITA        LGT SNOW  31  28  89 E9        30.16F FOG     WCI  23
HAYS           CLOUDY    28  19  69 E9        30.12F WCI  20
LIBERAL        CLOUDY    37  30  75 SE15      30.02S WCI  28
GOODLAND       FOG       24  23  96 E9        30.05R VSB 1/4 WCI  14
$$



USA.gov is the U.S. government's official web portal to all federal, state and local government web resources and services.